Location: USNO
(38.9242°N, 77.0663°W)
Time: 08:56:03
(UTC-05:00)

Tiangong 1 - Pass Details

Date: 14 October 2017
Orbit: 275 x 302 km, 42.8° (Epoch: 14 December)

Event Time Altitude Azimuth Distance (km) Brightness Sun altitude
Rises 19:53:02 0° 289° (WNW) 2,081 6.3 -16.8°
Reaches altitude 10° 19:55:04 10° 287° (WNW) 1,233 4.8 -17.2°
Maximum altitude 19:57:49 68° 203° (SSW) 342 0.8 -17.7°
Enters shadow 19:57:52 68° 193° (SSW) 343 0.7 -17.7°
